DW6963 Weather Reports


Display with metric or nautical units.
time (UTC)temp
F
wind
direction
speed
MPH
gust
MPH
rain 1hr
in
rain 24hr
in
rain mn
in
humidity
%
barometer
mb
20260508135411 56 0 0.0 0.0 0.00 0.00 0.00 58 1014.7
20260508134911 56 0 0.0 0.0 0.00 0.00 0.00 55 1014.7
20260508134411 56 0 0.0 0.0 0.00 0.00 0.00 58 1014.8
20260508133911 56 0 0.0 0.0 0.00 0.00 0.00 57 1014.7
20260508133411 55 0 0.0 0.0 0.00 0.00 0.00 57 1014.8
20260508132912 55 0 0.0 0.0 0.00 0.00 0.00 57 1014.7
20260508132411 55 0 0.0 0.0 0.00 0.00 0.00 58 1014.8
20260508131911 54 0 0.0 0.0 0.00 0.00 0.00 61 1014.7
20260508131411 54 0 0.0 0.0 0.00 0.00 0.00 61 1014.7
20260508130911 53 0 0.0 0.0 0.00 0.00 0.00 61 1014.7
20260508125911 52 0 0.0 0.0 0.00 0.00 0.00 65 1014.8
20260508124411 51 0 0.0 0.0 0.00 0.00 0.00 65 1014.7
20260508123911 51 0 0.0 0.0 0.00 0.00 0.00 66 1014.8
20260508123411 50 0 0.0 0.0 0.00 0.00 0.00 66 1014.8
20260508121911 50 0 0.0 0.0 0.00 0.00 0.00 67 1014.7
20260508121411 50 0 0.0 0.0 0.00 0.00 0.00 67 1014.7
20260508120911 50 0 0.0 0.0 0.00 0.00 0.00 67 1014.6
20260508115911 49 0 0.0 0.0 0.00 0.00 0.00 68 1014.5
20260508115411 49 0 0.0 0.0 0.00 0.00 0.00 68 1014.6
20260508114411 48 0 0.0 0.0 0.00 0.00 0.00 69 1014.5
20260508113911 48 0 0.0 0.0 0.00 0.00 0.00 69 1014.5
20260508113411 48 0 0.0 0.0 0.00 0.00 0.00 69 1014.5
20260508112911 48 0 0.0 0.0 0.00 0.00 0.00 69 1014.4
20260508112411 48 0 0.0 0.0 0.00 0.00 0.00 70 1014.4
20260508111911 47 0 0.0 0.0 0.00 0.00 0.00 70 1014.3
20260508111411 47 0 0.0 0.0 0.00 0.00 0.00 71 1014.2
20260508110411 47 0 0.0 0.0 0.00 0.00 0.00 72 1014.1
20260508105910 46 0 0.0 0.0 0.00 0.00 0.00 71 1014.1
20260508105411 46 0 0.0 0.0 0.00 0.00 0.00 72 1014.2
20260508104411 46 0 0.0 0.0 0.00 0.00 0.00 73 1014.1
20260508103911 45 0 0.0 0.0 0.00 0.00 0.00 74 1014.0
20260508103411 45 0 0.0 0.0 0.00 0.00 0.00 75 1014.0
20260508102911 44 0 0.0 0.0 0.00 0.00 0.00 76 1014.1
20260508100911 44 0 0.0 0.0 0.00 0.00 0.00 75 1014.1
20260508100411 44 0 0.0 0.0 0.00 0.00 0.00 75 1014.1
20260508095911 44 0 0.0 0.0 0.00 0.00 0.00 75 1014.1
20260508095411 44 0 0.0 0.0 0.00 0.00 0.00 75 1014.1
20260508094911 44 0 0.0 0.0 0.00 0.00 0.00 76 1014.2
20260508094411 43 0 0.0 0.0 0.00 0.00 0.00 76 1014.1
20260508093411 43 0 0.0 0.0 0.00 0.00 0.00 75 1014.1
20260508092411 44 0 0.0 0.0 0.00 0.00 0.00 74 1014.2
20260508091411 43 0 0.0 0.0 0.00 0.00 0.00 75 1014.2
20260508090911 43 0 0.0 0.0 0.00 0.00 0.00 75 1014.2
20260508090411 43 0 0.0 0.0 0.00 0.00 0.00 75 1014.1
20260508085911 43 0 0.0 0.0 0.00 0.00 0.00 75 1014.1
20260508085411 43 0 0.0 0.0 0.00 0.00 0.00 74 1014.2
20260508084911 43 0 0.0 0.0 0.00 0.00 0.00 74 1014.1
20260508084411 43 0 0.0 0.0 0.00 0.00 0.00 73 1014.2
20260508083911 43 0 0.0 0.0 0.00 0.00 0.00 73 1014.0
20260508083411 43 0 0.0 0.0 0.00 0.00 0.00 72 1014.0
20260508082911 44 0 0.0 0.0 0.00 0.00 0.00 72 1014.0
20260508082411 44 0 0.0 0.0 0.00 0.00 0.00 71 1014.0
20260508081911 44 0 0.0 0.0 0.00 0.00 0.00 70 1014.1
20260508081411 44 0 0.0 0.0 0.00 0.00 0.00 70 1014.0
20260508080911 45 0 0.0 0.0 0.00 0.00 0.00 69 1014.0
20260508075411 46 0 0.0 0.0 0.00 0.00 0.00 67 1014.0
20260508074911 46 0 0.0 0.0 0.00 0.00 0.00 67 1014.1
20260508073911 46 0 0.0 0.0 0.00 0.00 0.00 66 1014.0
20260508073411 46 0 0.0 0.0 0.00 0.00 0.00 66 1014.0
20260508072911 46 0 0.0 0.0 0.00 0.00 0.00 66 1013.9
20260508072411 46 0 0.0 0.0 0.00 0.00 0.00 66 1013.9
20260508071911 46 0 0.0 0.0 0.00 0.00 0.00 66 1014.0
20260508071411 46 0 0.0 0.0 0.00 0.00 0.00 66 1014.0
20260508070411 46 0 0.0 0.0 0.00 0.00 0.00 66 1014.3
20260508065912 46 0 0.0 0.0 0.00 0.00 0.00 66 1014.3
20260508065411 47 0 0.0 0.0 0.00 0.00 0.00 66 1014.4
20260508064911 47 0 0.0 0.0 0.00 0.00 0.00 66 1014.4
20260508064411 47 0 0.0 0.0 0.00 0.00 0.00 66 1014.4
20260508063911 47 0 0.0 0.0 0.00 0.00 0.00 66 1014.4
20260508063411 47 0 0.0 0.0 0.00 0.00 0.00 66 1014.5
20260508062911 47 0 0.0 0.0 0.00 0.00 0.00 66 1014.5
20260508062411 47 0 0.0 0.0 0.00 0.00 0.00 66 1014.6
20260508061911 47 0 0.0 0.0 0.00 0.00 0.00 66 1014.5
20260508061411 47 0 0.0 0.0 0.00 0.00 0.00 67 1014.6
20260508060411 47 0 0.0 0.0 0.00 0.00 0.00 67 1014.6
20260508055411 47 0 0.0 0.0 0.00 0.00 0.00 67 1014.6
20260508054911 47 0 0.0 0.0 0.00 0.00 0.00 66 1014.6
20260508054411 47 0 0.0 0.0 0.00 0.00 0.00 67 1014.6
20260508053911 47 0 0.0 0.0 0.00 0.00 0.00 67 1014.5
20260508052411 46 0 0.0 0.0 0.00 0.00 0.00 68 1014.5
20260508051411 46 0 0.0 0.0 0.00 0.00 0.00 70 1014.6
20260508050911 46 0 0.0 0.0 0.00 0.00 0.00 71 1014.5
20260508050411 45 0 0.0 0.0 0.00 0.00 0.00 72 1014.6
20260508045911 45 0 0.0 0.0 0.00 0.00 0.00 73 1014.5
20260508045411 45 0 0.0 0.0 0.00 0.00 0.00 74 1014.6
20260508044911 44 0 0.0 0.0 0.00 0.00 0.00 74 1014.5
20260508044411 44 0 0.0 0.0 0.00 0.00 0.00 74 1014.6
20260508043911 44 0 0.0 0.0 0.00 0.00 0.00 75 1014.5
20260508043411 44 0 0.0 0.0 0.00 0.00 0.00 75 1014.5
20260508042411 44 0 0.0 0.0 0.00 0.00 0.00 76 1014.5
20260508041911 44 0 0.0 0.0 0.00 0.00 0.00 76 1014.4
20260508041411 44 0 0.0 0.0 0.00 0.00 0.00 76 1014.4
20260508040911 44 0 0.0 0.0 0.00 0.00 0.00 77 1014.5
20260508040414 43 0 0.0 0.0 0.00 0.00 0.00 78 1014.4
20260508035411 43 0 0.0 0.0 0.00 0.00 0.00 79 1014.5
20260508034911 43 0 0.0 0.0 0.00 0.00 0.00 79 1014.5
20260508034411 43 0 0.0 0.0 0.00 0.00 0.00 79 1014.4
20260508033911 43 0 0.0 0.0 0.00 0.00 0.00 79 1014.5
20260508033411 43 0 0.0 0.0 0.00 0.00 0.00 79 1014.5
20260508032911 43 0 0.0 0.0 0.00 0.00 0.00 79 1014.5
20260508032411 43 0 0.0 0.0 0.00 0.00 0.00 79 1014.5
20260508031911 43 0 0.0 0.0 0.00 0.00 0.00 79 1014.5
20260508031411 44 0 0.0 0.0 0.00 0.00 0.00 79 1014.4
20260508030911 44 0 0.0 0.0 0.00 0.00 0.00 78 1014.4
20260508030411 44 0 0.0 0.0 0.00 0.00 0.00 78 1014.4
20260508025911 44 0 0.0 0.0 0.00 0.00 0.00 77 1014.5
20260508025411 44 0 0.0 0.0 0.00 0.00 0.00 78 1014.4
20260508024912 44 0 0.0 0.0 0.00 0.00 0.00 78 1014.3
20260508023911 44 0 0.0 0.0 0.00 0.00 0.00 78 1014.2
20260508023411 44 0 0.0 0.0 0.00 0.00 0.00 77 1014.3
20260508022911 44 0 0.0 0.0 0.00 0.00 0.00 77 1014.4
20260508022411 44 0 0.0 0.0 0.00 0.00 0.00 77 1014.4
20260508021911 45 0 0.0 0.0 0.00 0.00 0.00 76 1014.4
20260508021411 45 0 0.0 0.0 0.00 0.00 0.00 76 1014.4
20260508020911 45 0 0.0 0.0 0.00 0.00 0.00 75 1014.4
20260508020411 45 0 0.0 0.0 0.00 0.00 0.00 75 1014.4
20260508015911 46 0 0.0 0.0 0.00 0.00 0.00 75 1014.4
20260508014911 46 0 0.0 0.0 0.00 0.00 0.00 72 1014.5
20260508014411 46 0 0.0 0.0 0.00 0.00 0.00 72 1014.4
20260508013911 46 0 0.0 0.0 0.00 0.00 0.00 72 1014.3
20260508013411 46 0 0.0 0.0 0.00 0.00 0.00 70 1014.3
20260508012411 47 0 0.0 0.0 0.00 0.00 0.00 68 1014.3
20260508010911 49 0 0.0 0.0 0.00 0.00 0.00 65 1014.2
20260508005412 50 0 0.0 0.0 0.00 0.00 0.00 63 1014.0
20260508004911 51 0 0.0 0.0 0.00 0.00 0.00 61 1014.0
20260508003911 52 0 0.0 0.0 0.00 0.00 0.00 58 1014.0
20260508003411 53 0 0.0 0.0 0.00 0.00 0.00 57 1014.0
20260508002911 54 0 0.0 0.0 0.00 0.00 0.00 56 1013.9
20260508002411 54 0 0.0 0.0 0.00 0.00 0.00 52 1013.9
20260508001911 55 0 0.0 0.0 0.00 0.00 0.00 51 1013.8
20260508001411 55 0 0.0 0.0 0.00 0.00 0.00 48 1013.8
20260508000412 56 0 0.0 0.0 0.00 0.00 0.00 47 1013.9
20260507235911 56 0 0.0 0.0 0.00 0.00 0.00 45 1014.0
20260507235411 56 0 0.0 0.0 0.00 0.00 0.00 45 1013.9
20260507234911 56 0 0.0 0.0 0.00 0.00 0.00 43 1013.9
20260507234411 57 0 0.0 0.0 0.00 0.00 0.00 43 1013.7
20260507233911 57 0 0.0 0.0 0.00 0.00 0.00 44 1013.6
20260507232911 57 0 0.0 0.0 0.00 0.00 0.00 43 1013.5
20260507232411 58 0 0.0 0.0 0.00 0.00 0.00 43 1013.6
20260507231912 58 0 0.0 0.0 0.00 0.00 0.00 41 1013.6
20260507231411 58 0 0.0 0.0 0.00 0.00 0.00 41 1013.7
20260507230411 58 0 0.0 0.0 0.00 0.00 0.00 40 1013.6
20260507225911 59 0 0.0 0.0 0.00 0.00 0.00 40 1013.7
20260507225411 59 0 0.0 0.0 0.00 0.00 0.00 40 1013.7
20260507224911 59 0 0.0 0.0 0.00 0.00 0.00 40 1013.6
20260507224411 59 0 0.0 0.0 0.00 0.00 0.00 41 1013.6
20260507223911 59 0 0.0 0.0 0.00 0.00 0.00 42 1013.7
20260507223411 59 0 0.0 0.0 0.00 0.00 0.00 42 1013.7
20260507222912 59 0 0.0 0.0 0.00 0.00 0.00 43 1013.8
20260507222411 59 0 0.0 0.0 0.00 0.00 0.00 40 1013.8
20260507221912 59 0 0.0 0.0 0.00 0.00 0.00 42 1013.9
20260507221411 59 0 0.0 0.0 0.00 0.00 0.00 45 1013.9
20260507220912 59 0 0.0 0.0 0.00 0.00 0.00 45 1013.9
20260507220411 59 0 0.0 0.0 0.00 0.00 0.00 42 1013.9
20260507215911 59 0 0.0 0.0 0.00 0.00 0.00 41 1013.9
20260507215411 60 0 0.0 0.0 0.00 0.00 0.00 41 1014.0
20260507214911 60 0 0.0 0.0 0.00 0.00 0.00 43 1014.1
20260507214411 59 0 0.0 0.0 0.00 0.00 0.00 42 1013.9
20260507213911 59 0 0.0 0.0 0.00 0.00 0.00 39 1014.0
20260507213411 59 0 0.0 0.0 0.00 0.00 0.00 42 1014.1
20260507212911 59 0 0.0 0.0 0.00 0.00 0.00 42 1013.9
20260507212411 59 0 0.0 0.0 0.00 0.00 0.00 44 1014.0
20260507211411 58 0 0.0 0.0 0.00 0.00 0.00 44 1013.9
20260507210911 58 0 0.0 0.0 0.00 0.00 0.00 43 1013.9
20260507210411 58 0 0.0 0.0 0.00 0.00 0.00 44 1013.9
20260507205411 58 0 0.0 0.0 0.00 0.00 0.00 42 1013.8
20260507204911 58 0 0.0 0.0 0.00 0.00 0.00 42 1013.8
20260507204412 59 0 0.0 0.0 0.00 0.00 0.00 44 1013.7
20260507203911 59 0 0.0 0.0 0.00 0.00 0.00 45 1013.7
20260507203412 59 0 0.0 0.0 0.00 0.00 0.00 45 1013.7
20260507202911 59 0 0.0 0.0 0.00 0.00 0.00 45 1013.7
20260507202411 59 0 0.0 0.0 0.00 0.00 0.00 42 1013.7
20260507201911 59 0 0.0 0.0 0.00 0.00 0.00 44 1013.6
20260507201411 59 0 0.0 0.0 0.00 0.00 0.00 46 1013.8
20260507200911 58 0 0.0 0.0 0.00 0.00 0.00 46 1013.8
20260507200411 58 0 0.0 0.0 0.00 0.00 0.00 44 1013.7
20260507195911 58 0 0.0 0.0 0.00 0.00 0.00 47 1013.7
20260507195411 57 0 0.0 0.0 0.00 0.00 0.00 44 1013.9
20260507194911 57 0 0.0 0.0 0.00 0.00 0.00 43 1014.0
20260507194411 58 0 0.0 0.0 0.00 0.00 0.00 43 1014.0
20260507193911 58 0 0.0 0.0 0.00 0.00 0.00 46 1014.0
20260507193411 58 0 0.0 0.0 0.00 0.00 0.00 50 1014.0
20260507191911 58 0 0.0 0.0 0.00 0.00 0.00 47 1014.0
20260507191412 58 0 0.0 0.0 0.00 0.00 0.00 44 1014.0
20260507190911 58 0 0.0 0.0 0.00 0.00 0.00 45 1014.1
20260507190412 58 0 0.0 0.0 0.00 0.00 0.00 47 1014.1
20260507185911 58 0 0.0 0.0 0.00 0.00 0.00 50 1014.1
20260507185412 57 0 0.0 0.0 0.00 0.00 0.00 48 1014.0
20260507184911 57 0 0.0 0.0 0.00 0.00 0.00 47 1014.1
20260507184411 57 0 0.0 0.0 0.00 0.00 0.00 50 1014.4
20260507183911 57 0 0.0 0.0 0.00 0.00 0.00 47 1014.3
20260507183411 57 0 0.0 0.0 0.00 0.00 0.00 46 1014.2
20260507182911 57 0 0.0 0.0 0.00 0.00 0.00 46 1014.2
20260507182412 57 0 0.0 0.0 0.00 0.00 0.00 49 1014.2
20260507181911 57 0 0.0 0.0 0.00 0.00 0.00 47 1014.2
20260507175912 56 0 0.0 0.0 0.00 0.00 0.00 50 1014.3
20260507175412 56 0 0.0 0.0 0.00 0.00 0.00 49 1014.4
20260507174911 56 0 0.0 0.0 0.00 0.00 0.00 47 1014.4
20260507174411 56 0 0.0 0.0 0.00 0.00 0.00 45 1014.6
20260507173911 56 0 0.0 0.0 0.00 0.00 0.00 49 1014.5
20260507173411 56 0 0.0 0.0 0.00 0.00 0.00 49 1014.6
20260507172411 55 0 0.0 0.0 0.00 0.00 0.00 51 1014.7
20260507171912 55 0 0.0 0.0 0.00 0.00 0.00 47 1014.8
20260507170411 55 0 0.0 0.0 0.00 0.00 0.00 48 1015.0
20260507165911 55 0 0.0 0.0 0.00 0.00 0.00 49 1015.1
20260507165411 55 0 0.0 0.0 0.00 0.00 0.00 49 1015.1
20260507164412 54 0 0.0 0.0 0.00 0.00 0.00 50 1015.1
20260507163911 54 0 0.0 0.0 0.00 0.00 0.00 49 1015.1
20260507163412 54 0 0.0 0.0 0.00 0.00 0.00 51 1015.2
20260507162911 54 0 0.0 0.0 0.00 0.00 0.00 51 1015.1
20260507162412 54 0 0.0 0.0 0.00 0.00 0.00 49 1015.2
20260507161911 54 0 0.0 0.0 0.00 0.00 0.00 51 1015.2
20260507161411 54 0 0.0 0.0 0.00 0.00 0.00 51 1015.2
20260507160911 54 0 0.0 0.0 0.00 0.00 0.00 52 1015.2
20260507155911 54 0 0.0 0.0 0.00 0.00 0.00 49 1015.1
20260507153911 53 0 0.0 0.0 0.00 0.00 0.00 49 1015.2
20260507153411 53 0 0.0 0.0 0.00 0.00 0.00 55 1015.1
20260507152912 52 0 0.0 0.0 0.00 0.00 0.00 53 1015.1
20260507151411 52 0 0.0 0.0 0.00 0.00 0.00 53 1014.9
20260507150911 52 0 0.0 0.0 0.00 0.00 0.00 55 1014.9
20260507145911 52 0 0.0 0.0 0.00 0.00 0.00 55 1015.0
20260507145411 52 0 0.0 0.0 0.00 0.00 0.00 54 1014.9
20260507144912 52 0 0.0 0.0 0.00 0.00 0.00 54 1014.9
20260507144411 52 0 0.0 0.0 0.00 0.00 0.00 54 1015.0
20260507143912 51 0 0.0 0.0 0.00 0.00 0.00 55 1015.0
20260507143412 51 0 0.0 0.0 0.00 0.00 0.00 56 1015.0
20260507142411 51 0 0.0 0.0 0.00 0.00 0.00 58 1015.0
20260507141911 51 0 0.0 0.0 0.00 0.00 0.00 58 1015.0
20260507141411 51 0 0.0 0.0 0.00 0.00 0.00 59 1015.0
20260507140912 51 0 0.0 0.0 0.00 0.00 0.00 56 1015.1
20260507140411 51 0 0.0 0.0 0.00 0.00 0.00 61 1015.1
20260507135911 51 0 0.0 0.0 0.00 0.00 0.00 62 1015.1